COSMOS 1691 DEB, 16272

Orbit data source: Space-Track

COSMOS 1691 DEB, 16272 is space debris in LEO originally from a launch on Wed, 09 Oct 1985 UTC launched from the Plesetsk Missile And Space Complex (PKMTR). Debris objects in space refer to the collection of defunct objects orbiting the Earth. Examples of debris include non-operational satellites, rocket bodies, and fragments generated from explosions, collisions, or faulty payload assembly.

Loading next visibility...
Identifier
16272, 1985-094R
Orbit
LEO
Country
Flag of CISCIS
Related business
Manufacturer
Unknown
Mission
Spacecraft
Bus & Motor
Unknown
Mass
Unknown
Launch date (UTC)
1985-10-09 (41 years ago)
Launch vehicle
Unknown
Launch site
Plesetsk Missile And Space Complex (PKMTR)
Object type
Payload
Rocket body
Debris
Shape & HBR
Unknown shape, 0.1 m
Radar Cross Section
Medium (>0.1 m² and <1 m²)

Expand to show TLE details & history
Last TLE update: 2 days ago

TLE from 2 days ago
0 COSMOS 1691 DEB
1 16272U 85094R   26171.34449558  .00000247  00000-0  11060-2 0  9996
2 16272  82.6165 134.4466 0041395 316.9562 197.1416 12.75299707888417
Epoch: 2026-06-20T08:16Z
TLE epoch observation values (Epoch: 2026-06-20T08:16:04.418Z)
Latitude
25.83924°
Longitude
-81.71231°
Altitude
1,394.061 km
Speed
7.151 km/s
True Right ascension
20h 43m 27s
True Declination
25° 42' 56"
Sunlit
Object was in daylight at epoch
Visualization orbit readout
Latitude
Unknown
Longitude
Unknown
Altitude
Unknown
Speed
Unknown
Apparent Right ascension
Unknown
Apparent Declination
Unknown
Sunlit
N/A
Visualization observer readout
Local Sidereal Time
02:18:49
Azimuth
Unknown
Elevation
Unknown
Doppler factor
Unknown
Orbital elements
Apogee altitude
1,389.75 km
Perigee altitude
1,325.704 km
Semi-major axis
7,735.864 km
Eccentricity
0.00414
Inclination
82.6165°
RAAN
134.4466°
Arg. of periapsis
316.9562°
True anomaly
197.00248°
Mean anomaly
197.1416°
Eccentric anomaly
197.07197°
Mean motion
3.18992 °/min
Orbital period
112.86 mins
BSTAR
0.001106
Loading maneuver chart data...
Computing Atmospheric mass density...
Loading historical data...
Loading historical data...
Loading historical data...
Loading historical data...
Loading historical data...
Loading historical data...
Loading historical data...

Documentation

Showing up to 5 results
|